Humidity-temperature Sensor

Selected Measurement Type: Air Temperature

 
Air Temperature [°C]     6 entries per hour
Showing data from 9/21/2019 (03:10:00 Z) to 9/20/2019 (00:01:00 Z)
Previous Next [ Day | 3-Days | 7-Days ]
First Last
Prev [ Day | 3-Days | 7-Days ] Next
First Last

Start Time:     :
End Time:     :     
Time (in GMT) :00 :50 :40 :30 :20 :10
Previous Next [ Day | 3-Days | 7-Days ]
First Last
Prev [ Day | 3-Days | 7-Days ] Next
First Last


123 => good data
MM => data is determined as missing
-- => data not received/configured
Back to Top Back to Top
9/21/2019 04:00 to 3:10 -- -- -- -- -- 26.77
9/21/2019 03:00 to 2:10 26.76 26.45 27.07 26.95 26.54 26.53
9/21/2019 02:00 to 1:10 26.64 26.57 26.88 27.21 27.26 27.04
9/21/2019 01:00 to 0:10 26.91 27.09 26.91 26.79 27.15 27.03
9/21/2019 00:00 to 23:10 27.22 27.13 27.03 27.04 26.94 26.96
9/20/2019 23:00 to 22:10 26.86 26.80 26.76 26.74 26.57 26.38
9/20/2019 22:00 to 21:10 26.20 26.25 25.99 25.91 25.84 25.81
9/20/2019 21:00 to 20:10 25.61 25.59 25.62 25.55 25.35 25.33
9/20/2019 20:00 to 19:10 25.30 25.00 24.88 24.85 24.79 24.52
9/20/2019 19:00 to 18:10 24.58 24.43 24.56 24.69 24.73 24.51
9/20/2019 18:00 to 17:10 24.54 24.55 24.32 24.10 24.12 24.22
9/20/2019 17:00 to 16:10 24.38 24.44 24.32 24.32 24.39 24.20
9/20/2019 16:00 to 15:10 24.26 24.22 24.54 24.48 24.16 24.32
9/20/2019 15:00 to 14:10 24.47 24.15 24.28 24.12 24.03 24.19
9/20/2019 14:00 to 13:10 24.39 26.75 26.78 26.73 26.67 26.74
9/20/2019 13:00 to 12:10 26.81 26.71 26.75 26.86 26.78 26.89
9/20/2019 12:00 to 11:10 26.88 27.03 26.99 26.97 26.89 26.88
9/20/2019 11:00 to 10:10 26.83 26.64 26.76 26.62 26.61 26.65
9/20/2019 10:00 to 9:10 26.52 26.31 26.30 26.21 26.22 26.25
9/20/2019 09:00 to 8:10 25.97 25.69 25.83 25.94 25.77 25.99
9/20/2019 08:00 to 7:10 26.59 26.53 26.60 26.63 26.63 26.68
9/20/2019 07:00 to 6:10 26.76 26.63 26.60 26.56 26.67 26.45
9/20/2019 06:00 to 5:10 26.40 26.41 26.40 26.37 26.36 26.45
9/20/2019 05:00 to 4:10 26.39 26.44 26.16 25.87 26.01 26.44
9/20/2019 04:00 to 3:10 26.22 26.23 26.60 26.81 26.71 26.59
9/20/2019 03:00 to 2:10 26.45 26.36 26.19 26.19 26.05 25.93
9/20/2019 02:00 to 1:10 26.17 26.45 26.29 26.43 26.74 26.58
9/20/2019 01:00 to 0:10 26.57 26.42 26.51 27.01 26.86 26.91